Mist van: 23-09-2017 01:00 tot: 09:59 waarschuwing voor: Mist niveau: Geel info button
nederlands:
Deze nacht komt het tot vorming van mist die het zicht kan beperken tot 100 m of minder.

français:
Cette nuit, on prévoit du brouillard qui pourra limiter la visibilité à 100 m ou moins. 

weather underground historische gegevens

dagelijkse samenvatting september 23, 2017 eenheden:  metrisch    engels   beide
« vorige dag
volgende dag »
dagelijkse wekelijkse maandelijkse jaarlijkse aangepaste
  huidig: hoog: laag: gemiddeld:
temperatuur: 6.6 °C 8.9 °C 6.6 °C 7,7 °C
dauwpunt: 5.9 °C 8.1 °C 5.9 °C 7 °C
vochtigheid: 95 % 95 % 94 % 95 %
wind snelheid: 0.0 km/h 0.0 km/h 0.0 km/h 0 km/h
windvlaag: 0.0 km/h 0.0 km/h - -
wind:Calm - - North
luchtdruk: 1023.9 hPa 1023.9 hPa 1023.2 hPa -
neerslag: 0.0 mm      
Historical Graphs
 
 
tabel voor september 23, 2017
tijd temperatuur dauwpunt luchtdruk wind wind snelheid windvlaag vochtigheid regenval per uur
00:02 8.9 °C 8.1 °C 1023.2 hPa Calm     95 % 0.0 mm
00:07 8.8 °C 7.9 °C 1023.2 hPa Calm     94 % 0.0 mm
00:12 8.7 °C 7.9 °C 1023.2 hPa Calm     95 % 0.0 mm
00:17 8.6 °C 7.8 °C 1023.2 hPa Calm     95 % 0.0 mm
00:22 8.5 °C 7.7 °C 1023.2 hPa Calm     95 % 0.0 mm
00:27 8.4 °C 7.7 °C 1023.2 hPa Calm     95 % 0.0 mm
00:32 8.3 °C 7.6 °C 1023.2 hPa Calm     95 % 0.0 mm
00:37 8.3 °C 7.5 °C 1023.2 hPa Calm     95 % 0.0 mm
00:42 8.1 °C 7.3 °C 1023.2 hPa Calm     95 % 0.0 mm
00:47 8.1 °C 7.3 °C 1023.2 hPa Calm     95 % 0.0 mm
00:52 7.9 °C 7.2 °C 1023.2 hPa Calm     95 % 0.0 mm
00:57 7.9 °C 7.1 °C 1023.2 hPa Calm     95 % 0.0 mm
01:02 7.8 °C 7.1 °C 1023.2 hPa Calm     95 % 0.0 mm
01:07 7.8 °C 7.1 °C 1023.2 hPa Calm     95 % 0.0 mm
01:12 7.7 °C 6.9 °C 1023.2 hPa Calm     95 % 0.0 mm
01:17 7.6 °C 6.8 °C 1023.2 hPa Calm     95 % 0.0 mm
01:22 7.5 °C 6.8 °C 1023.6 hPa Calm     95 % 0.0 mm
01:27 7.5 °C 6.8 °C 1023.6 hPa Calm     95 % 0.0 mm
01:32 7.3 °C 6.6 °C 1023.6 hPa Calm     95 % 0.0 mm
01:37 7.3 °C 6.6 °C 1023.6 hPa Calm     95 % 0.0 mm
01:42 7.2 °C 6.5 °C 1023.6 hPa Calm     95 % 0.0 mm
01:47 7.2 °C 6.5 °C 1023.6 hPa Calm     95 % 0.0 mm
01:52 7.1 °C 6.4 °C 1023.6 hPa Calm     95 % 0.0 mm
01:57 7.0 °C 6.3 °C 1023.9 hPa Calm     95 % 0.0 mm
02:02 6.9 °C 6.2 °C 1023.9 hPa Calm     95 % 0.0 mm
02:07 6.8 °C 6.1 °C 1023.9 hPa Calm     95 % 0.0 mm
02:12 6.7 °C 6.0 °C 1023.9 hPa Calm     95 % 0.0 mm
02:17 6.7 °C 6.0 °C 1023.9 hPa Calm     95 % 0.0 mm
02:22 6.6 °C 5.9 °C 1023.9 hPa Calm     95 % 0.0 mm
Welkom bij Weerstation Zoersel
gegevens verzameld door Weather Underground - 2,5 mb

script ontwikkeld door  Jim McMurry - jmcmurry@mwt.net aangepast voor de template door  Wim van der Kuil - Leuven-Template.eu